This is the latest recevied weather packets stored in our database for station/object WY7ATH-2. If no packets are shown the sender has not sent any weather packets the latest 10 day(s).
| Time | Temp. | Humidity | Pressure | Rain* | Wind** | Luminosity | Snow |
|---|---|---|---|---|---|---|---|
| 1788353740 | 17.22° C | - | - | 0 mm | 0 m/s | - | - |
| 1788352543 | 14.44° C | - | - | 0 mm | 1.34 m/s, 311° | - | - |
| 1788351946 | 13.89° C | - | - | 0 mm | 4.92 m/s, 307° | - | - |
| 1788351349 | 15° C | - | - | 0 mm | 0 m/s | - | - |
| 1788350752 | 15° C | - | - | 0 mm | 2.68 m/s, 278° | - | - |
| 1788350155 | 14.44° C | - | - | 0 mm | 2.68 m/s, 271° | - | - |
| 1788349558 | 14.44° C | - | - | 0 mm | 0 m/s | - | - |
| 1788348958 | 14.44° C | - | - | 0 mm | 1.79 m/s, 271° | - | - |
| 1788348360 | 13.33° C | - | - | 0 mm | 3.13 m/s, 321° | - | - |
| 1788347851 | 13.33° C | - | - | 0 mm | 2.24 m/s, 283° | - | - |
| 1788347764 | 13.33° C | - | - | 0 mm | 2.24 m/s, 283° | - | - |
| 1788347210 | 13.89° C | - | - | 0 mm | 3.13 m/s, 307° | - | - |
| 1788347167 | 13.89° C | - | - | 0 mm | 3.13 m/s, 307° | - | - |
| 1788346674 | 13.89° C | - | - | 0 mm | 4.02 m/s, 243° | - | - |
| 1788346570 | 13.89° C | - | - | 0 mm | 4.02 m/s, 243° | - | - |
| 1788345973 | 13.33° C | - | - | 0 mm | 5.36 m/s, 311° | - | - |
| 1788345372 | 13.89° C | - | - | 0 mm | 3.13 m/s, 298° | - | - |
| 1788344775 | 13.33° C | - | - | 0 mm | 4.02 m/s, 284° | - | - |
| 1788344178 | 13.89° C | - | - | 0 mm | 0.45 m/s, 297° | - | - |
| 1788343581 | 15° C | - | - | 0 mm | 0.45 m/s, 276° | - | - |
| 1788342984 | 15° C | - | - | 0 mm | 0.89 m/s, 287° | - | - |
| 1788342388 | 13.89° C | - | - | 0 mm | 0.45 m/s, 293° | - | - |
| 1788341787 | 14.44° C | - | - | 0 mm | 0 m/s | - | - |
| 1788341190 | 15° C | - | - | 0 mm | 0 m/s | - | - |
| 1788340593 | 15° C | - | - | 0 mm | 0 m/s | - | - |
* Rain latest hour (hover to see other rain measurements)
** Current wind speed in m/s (hover to see current wind gust speed)